Location: Nashville
(36.1660°N, 86.7840°W)
Time: 15:34:50
(UTC-06:00)

Tiangong - Visible Passes

Search period start: 01 December 2021 00:00
Search period end: 11 December 2021 00:00
Orbit: 380 x 384 km, 41.5° (Epoch: 01 December)

Date Brightness Start Highest point End Pass type
(mag) Time Alt. Az. Time Alt. Az. Time Alt. Az.
04 Dec 3.9 18:23:51 10° S 18:24:07 11° S 18:24:07 11° S visible
05 Dec 4.5 18:58:53 10° SW 18:59:01 11° SW 18:59:01 11° SW visible
06 Dec 2.3 17:58:50 10° SSW 18:01:37 29° SSE 18:01:40 28° SE visible
07 Dec 3.3 16:59:20 10° S 17:01:19 15° SE 17:03:17 10° ESE visible
07 Dec 3.0 18:34:38 10° WSW 18:36:24 30° WSW 18:36:24 30° WSW visible
08 Dec 1.4 17:34:14 10° SW 17:37:19 53° SSE 17:38:53 25° E visible
09 Dec 1.5 18:10:29 10° W 18:13:28 53° NNW 18:13:28 53° NNW visible
10 Dec 1.0 17:09:51 10° WSW 17:13:00 86° NNW 17:15:50 12° ENE visible
10 Dec 3.9 18:47:09 10° WNW 18:48:00 16° WNW 18:48:00 16° WNW visible
